Weather History for Ballenas Island, BC

Change the Weather History Date:

Tuesday, February 26, 2013

  Actual Average Record
Temperature  
Mean Temperature 41 °F -  
Max Temperature 43 °F - - ()
Min Temperature 39 °F - - ()
Degree Days  
Heating Degree Days 24    
Moisture  
Dew Point 36 °F    
Average Humidity 79    
Maximum Humidity 90    
Minimum Humidity 62    
Precipitation  
Precipitation 0.08 in - - ()
Sea Level Pressure  
Sea Level Pressure 30.16 in    
Wind  
Wind Speed 15 mph ()    
Max Wind Speed 34 mph    
Max Gust Speed 43 mph    
T = Trace of Precipitation, MM = Missing Value Source: Averaged Metar Reports

Daily Weather History Graph

Daily Weather History Graph

Search for Another Location

Airport:

Trip Planner

Search our weather history database for the weather conditions in past years. The results will help you decide how hot, cold, wet, or windy it might be!

Date:

Astronomy

Feb. 26, 2013 Rise Set
Actual Time 7:04 AM PST 5:55 PM PST
Civil Twilight 6:32 AM PST 6:27 PM PST
Nautical Twilight 5:55 AM PST 7:04 PM PST
Astronomical Twilight 5:18 AM PST 7:41 PM PST
Moon 7:30 PM PST (2/26) 7:00 AM PST (2/26)
Length of Visible Light 11h 55m
Length of Day
10h 51m
Full, 99% of the Moon is Illuminated
Feb 26
Full
Mar 4
Last Quarter
Mar 11
New
Mar 19
First Quarter
Mar 27
Full

Hourly Weather History & Observations

Time (PST) Temp. Windchill Dew Point Humidity Pressure Visibility Wind Dir Wind Speed Gust Speed Precip Events Conditions
12:00 AM 39.9 °F 34.5 °F 33.6 °F 78% 30.21 in - SW 8.1 mph - N/A   Unknown
1:00 AM 40.3 °F 37.1 °F 33.4 °F 77% 30.21 in - South 4.6 mph - N/A   Unknown
2:00 AM 41.5 °F 39.6 °F 31.8 °F 68% 30.22 in - SE 3.5 mph - N/A   Unknown
3:00 AM 42.4 °F 38.8 °F 30.4 °F 62% 30.22 in - SE 5.8 mph - N/A   Unknown
4:00 AM 43 °F - 35 °F 65% 30.22 in - ENE 6.9 mph - -  
4:00 AM 43.2 °F 39.0 °F 35.1 °F 73% 30.22 in - ENE 6.9 mph - N/A   Unknown
5:00 AM 42.6 °F 35.6 °F 35.2 °F 75% 30.22 in - ESE 13.8 mph - N/A   Unknown
6:00 AM 42.4 °F 33.3 °F 37.2 °F 82% 30.23 in - ESE 21.9 mph - N/A   Unknown
7:00 AM 41.5 °F 33.2 °F 36.7 °F 83% 30.23 in - ESE 17.3 mph - N/A   Unknown
8:00 AM 42.3 °F 33.8 °F 37.8 °F 84% 30.22 in - ESE 18.4 mph 26.5 mph N/A   Unknown
9:00 AM 41.9 °F 33.1 °F 36.1 °F 80% 30.21 in - ESE 19.6 mph - N/A   Unknown
10:00 AM 42 °F - 35 °F 70% 30.22 in - ESE 19.6 mph - -  
10:00 AM 42.4 °F 33.8 °F 35.4 °F 76% 30.22 in - ESE 19.6 mph - N/A   Unknown
11:00 AM 43.0 °F 34.2 °F 35.2 °F 74% 30.19 in - ESE 20.7 mph 27.6 mph N/A   Unknown
12:00 PM 43.2 °F 33.6 °F 37.4 °F 80% 30.19 in - ESE 25.3 mph - N/A   Unknown
1:00 PM 43.0 °F 32.9 °F 36.7 °F 78% 30.18 in - ESE 27.6 mph - N/A   Unknown
2:00 PM 43.2 °F 33.4 °F 36.5 °F 77% 30.16 in - ESE 26.5 mph - N/A   Unknown
3:00 PM 42.4 °F 31.8 °F 37.0 °F 81% 30.13 in - ESE 29.9 mph 35.7 mph N/A   Unknown
4:00 PM 43 °F - 38 °F 75% 30.12 in - ESE 31.1 mph - -  
4:00 PM 43.0 °F 32.4 °F 37.8 °F 82% 30.12 in - ESE 31.1 mph - N/A   Unknown
5:00 PM 42.6 °F 31.7 °F 37.0 °F 81% 30.09 in - ESE 32.2 mph - N/A   Unknown
6:00 PM 42.3 °F 30.9 °F 37.0 °F 82% 30.08 in - ESE 34.5 mph 42.6 mph N/A   Unknown
7:00 PM 42.1 °F 31.7 °F 38.3 °F 86% 30.08 in - ESE 27.6 mph 38.0 mph N/A   Unknown
8:00 PM 41.4 °F 29.8 °F 38.3 °F 89% 30.06 in - ESE 33.4 mph 41.4 mph 0.05 in   Unknown
9:00 PM 41.4 °F 30.0 °F 37.9 °F 88% 30.08 in - ESE 32.2 mph 38.0 mph 0.04 in   Unknown
10:00 PM 42 °F - 38 °F 82% 30.09 in - ESE 26.5 mph - -  
10:00 PM 41.7 °F 31.4 °F 38.3 °F 88% 30.09 in - ESE 26.5 mph 32.2 mph N/A   Unknown
11:00 PM 41.4 °F 35.2 °F 38.7 °F 90% 30.10 in - SE 10.4 mph 20.7 mph 0.03 in   Unknown